Year,Month,Day,Hour,Minute,Value (Times are PST for temperature in C)
2007,06,19,00,00,9.70
2007,06,19,00,01,9.70
2007,06,19,00,02,9.70
2007,06,19,00,03,9.70
2007,06,19,00,04,9.70
2007,06,19,00,05,9.70
2007,06,19,00,06,9.60
2007,06,19,00,07,9.60
2007,06,19,00,08,9.60
2007,06,19,00,09,9.60
2007,06,19,00,10,9.60
2007,06,19,00,11,9.60
2007,06,19,00,12,9.60
2007,06,19,00,13,9.60
2007,06,19,00,14,9.60
2007,06,19,00,15,9.50
2007,06,19,00,16,9.50
2007,06,19,00,17,9.50
2007,06,19,00,18,9.50
2007,06,19,00,19,9.50
2007,06,19,00,20,9.50
2007,06,19,00,21,9.50
2007,06,19,00,22,9.40
2007,06,19,00,23,9.40
2007,06,19,00,24,9.40
2007,06,19,00,25,9.40
2007,06,19,00,26,9.40
2007,06,19,00,27,9.40
2007,06,19,00,28,9.40
2007,06,19,00,29,9.40
2007,06,19,00,30,9.40
2007,06,19,00,31,9.40
2007,06,19,00,32,9.30
2007,06,19,00,33,9.30
2007,06,19,00,34,9.40
2007,06,19,00,35,9.40
2007,06,19,00,36,9.30
2007,06,19,00,37,9.30
2007,06,19,00,38,9.30
2007,06,19,00,39,9.30
2007,06,19,00,40,9.30
2007,06,19,00,41,9.30
2007,06,19,00,42,9.30
2007,06,19,00,43,9.30
2007,06,19,00,44,9.20
2007,06,19,00,45,9.20
2007,06,19,00,46,9.20
2007,06,19,00,47,9.20
2007,06,19,00,48,9.20
2007,06,19,00,49,9.10
2007,06,19,00,50,9.10
2007,06,19,00,51,9.10
2007,06,19,00,52,9.10
2007,06,19,00,53,9.00
2007,06,19,00,54,9.00
2007,06,19,00,55,9.00
2007,06,19,00,56,8.90
2007,06,19,00,57,8.90
2007,06,19,00,58,8.90
2007,06,19,00,59,8.90
2007,06,19,01,00,8.80
2007,06,19,01,01,8.80
2007,06,19,01,02,8.80
2007,06,19,01,03,8.80
2007,06,19,01,04,8.80
2007,06,19,01,05,8.80
2007,06,19,01,06,8.70
2007,06,19,01,07,8.70
2007,06,19,01,08,8.70
2007,06,19,01,09,8.70
2007,06,19,01,10,8.70
2007,06,19,01,11,8.70
2007,06,19,01,12,8.60
2007,06,19,01,13,8.60
2007,06,19,01,14,8.60
2007,06,19,01,15,8.60
2007,06,19,01,16,8.60
2007,06,19,01,17,8.60
2007,06,19,01,18,8.60
2007,06,19,01,19,8.60
2007,06,19,01,20,8.60
2007,06,19,01,21,8.50
2007,06,19,01,22,8.50
2007,06,19,01,23,8.50
2007,06,19,01,24,8.50
2007,06,19,01,25,8.50
2007,06,19,01,26,8.40
2007,06,19,01,27,8.40
2007,06,19,01,28,8.40
2007,06,19,01,29,8.40
2007,06,19,01,30,8.40
2007,06,19,01,31,8.40
2007,06,19,01,32,8.40
2007,06,19,01,33,8.40
2007,06,19,01,34,8.40
2007,06,19,01,35,8.40
2007,06,19,01,36,8.40
2007,06,19,01,37,8.40
2007,06,19,01,38,8.40
2007,06,19,01,39,8.30
2007,06,19,01,40,8.30
2007,06,19,01,41,8.30
2007,06,19,01,42,8.30
2007,06,19,01,43,8.30
2007,06,19,01,44,8.30
2007,06,19,01,45,8.30
2007,06,19,01,46,8.30
2007,06,19,01,47,8.30
2007,06,19,01,48,8.30
2007,06,19,01,49,8.30
2007,06,19,01,50,8.30
2007,06,19,01,51,8.30
2007,06,19,01,52,8.40
2007,06,19,01,53,8.40
2007,06,19,01,54,8.40
2007,06,19,01,55,8.40
2007,06,19,01,56,8.40
2007,06,19,01,57,8.40
2007,06,19,01,58,8.40
2007,06,19,01,59,8.40
2007,06,19,02,00,8.40
2007,06,19,02,01,8.40
2007,06,19,02,02,8.40
2007,06,19,02,03,8.40
2007,06,19,02,04,8.40
2007,06,19,02,05,8.50
2007,06,19,02,06,8.50
2007,06,19,02,07,8.50
2007,06,19,02,08,8.40
2007,06,19,02,09,8.40
2007,06,19,02,10,8.40
2007,06,19,02,11,8.40
2007,06,19,02,12,8.30
2007,06,19,02,13,8.30
2007,06,19,02,14,8.30
2007,06,19,02,15,8.30
2007,06,19,02,16,8.30
2007,06,19,02,17,8.30
2007,06,19,02,18,8.20
2007,06,19,02,19,8.20
2007,06,19,02,20,8.20
2007,06,19,02,21,8.20
2007,06,19,02,22,8.20
2007,06,19,02,23,8.20
2007,06,19,02,24,8.20
2007,06,19,02,25,8.10
2007,06,19,02,26,8.10
2007,06,19,02,27,8.10
2007,06,19,02,28,8.10
2007,06,19,02,29,8.10
2007,06,19,02,30,8.10
2007,06,19,02,31,8.10
2007,06,19,02,32,8.10
2007,06,19,02,33,8.10
2007,06,19,02,34,8.10
2007,06,19,02,35,8.10
2007,06,19,02,36,8.10
2007,06,19,02,37,8.10
2007,06,19,02,38,8.20
2007,06,19,02,39,8.20
2007,06,19,02,40,8.20
2007,06,19,02,41,8.20
2007,06,19,02,42,8.20
2007,06,19,02,43,8.20
2007,06,19,02,44,8.20
2007,06,19,02,45,8.20
2007,06,19,02,46,8.20
2007,06,19,02,47,8.20
2007,06,19,02,48,8.20
2007,06,19,02,49,8.20
2007,06,19,02,50,8.20
2007,06,19,02,51,8.20
2007,06,19,02,52,8.20
2007,06,19,02,53,8.20
2007,06,19,02,54,8.20
2007,06,19,02,55,8.20
2007,06,19,02,56,8.20
2007,06,19,02,57,8.20
2007,06,19,02,58,8.20
2007,06,19,02,59,8.20
2007,06,19,03,00,8.20
2007,06,19,03,01,8.20
2007,06,19,03,02,8.20
2007,06,19,03,03,8.30
2007,06,19,03,04,8.30
2007,06,19,03,05,8.30
2007,06,19,03,06,8.30
2007,06,19,03,07,8.40
2007,06,19,03,08,8.40
2007,06,19,03,09,8.30
2007,06,19,03,10,8.30
2007,06,19,03,11,8.30
2007,06,19,03,12,8.30
2007,06,19,03,13,8.30
2007,06,19,03,14,8.20
2007,06,19,03,15,8.20
2007,06,19,03,16,8.20
2007,06,19,03,17,8.20
2007,06,19,03,18,8.20
2007,06,19,03,19,8.10
2007,06,19,03,20,8.10
2007,06,19,03,21,8.10
2007,06,19,03,22,8.10
2007,06,19,03,23,8.10
2007,06,19,03,24,8.10
2007,06,19,03,25,8.10
2007,06,19,03,26,8.10
2007,06,19,03,27,8.10
2007,06,19,03,28,8.10
2007,06,19,03,29,8.10
2007,06,19,03,30,8.10
2007,06,19,03,31,8.10
2007,06,19,03,32,8.10
2007,06,19,03,33,8.10
2007,06,19,03,34,8.10
2007,06,19,03,35,8.10
2007,06,19,03,36,8.10
2007,06,19,03,37,8.10
2007,06,19,03,38,8.10
2007,06,19,03,39,8.10
2007,06,19,03,40,8.10
2007,06,19,03,41,8.10
2007,06,19,03,42,8.10
2007,06,19,03,43,8.10
2007,06,19,03,44,8.20
2007,06,19,03,45,8.20
2007,06,19,03,46,8.20
2007,06,19,03,47,8.20
2007,06,19,03,48,8.20
2007,06,19,03,49,8.20
2007,06,19,03,50,8.30
2007,06,19,03,51,8.30
2007,06,19,03,52,8.30
2007,06,19,03,53,8.30
2007,06,19,03,54,8.30
2007,06,19,03,55,8.30
2007,06,19,03,56,8.30
2007,06,19,03,57,8.30
2007,06,19,03,58,8.30
2007,06,19,03,59,8.30
2007,06,19,04,00,8.30
2007,06,19,04,01,8.30
2007,06,19,04,02,8.30
2007,06,19,04,03,8.30
2007,06,19,04,04,8.40
2007,06,19,04,05,8.40
2007,06,19,04,06,8.40
2007,06,19,04,07,8.40
2007,06,19,04,08,8.40
2007,06,19,04,09,8.40
2007,06,19,04,10,8.40
2007,06,19,04,11,8.50
2007,06,19,04,12,8.50
2007,06,19,04,13,8.50
2007,06,19,04,14,8.50
2007,06,19,04,15,8.50
2007,06,19,04,16,8.50
2007,06,19,04,17,8.50
2007,06,19,04,18,8.50
2007,06,19,04,19,8.60
2007,06,19,04,20,8.60
2007,06,19,04,21,8.60
2007,06,19,04,22,8.60
2007,06,19,04,23,8.60
2007,06,19,04,24,8.60
2007,06,19,04,25,8.60
2007,06,19,04,26,8.60
2007,06,19,04,27,8.60
2007,06,19,04,28,8.50
2007,06,19,04,29,8.50
2007,06,19,04,30,8.50
2007,06,19,04,31,8.40
2007,06,19,04,32,8.40
2007,06,19,04,33,8.40
2007,06,19,04,34,8.40
2007,06,19,04,35,8.40
2007,06,19,04,36,8.40
2007,06,19,04,37,8.40
2007,06,19,04,38,8.30
2007,06,19,04,39,8.30
2007,06,19,04,40,8.30
2007,06,19,04,41,8.40
2007,06,19,04,42,8.40
2007,06,19,04,43,8.50
2007,06,19,04,44,8.50
2007,06,19,04,45,8.60
2007,06,19,04,46,8.60
2007,06,19,04,47,8.60
2007,06,19,04,48,8.60
2007,06,19,04,49,8.60
2007,06,19,04,50,8.60
2007,06,19,04,51,8.60
2007,06,19,04,52,8.60
2007,06,19,04,53,8.60
2007,06,19,04,54,8.60
2007,06,19,04,55,8.60
2007,06,19,04,56,8.60
2007,06,19,04,57,8.50
2007,06,19,04,58,8.50
2007,06,19,04,59,8.50
2007,06,19,05,00,8.50
2007,06,19,05,01,8.50
2007,06,19,05,02,8.50
2007,06,19,05,03,8.40
2007,06,19,05,04,8.40
2007,06,19,05,05,8.40
2007,06,19,05,06,8.40
2007,06,19,05,07,8.40
2007,06,19,05,08,8.40
2007,06,19,05,09,8.40
2007,06,19,05,10,8.40
2007,06,19,05,11,8.30
2007,06,19,05,12,8.30
2007,06,19,05,13,8.30
2007,06,19,05,14,8.30
2007,06,19,05,15,8.30
2007,06,19,05,16,8.30
2007,06,19,05,17,8.30
2007,06,19,05,18,8.30
2007,06,19,05,19,8.20
2007,06,19,05,20,8.20
2007,06,19,05,21,8.20
2007,06,19,05,22,8.20
2007,06,19,05,23,8.20
2007,06,19,05,24,8.20
2007,06,19,05,25,8.20
2007,06,19,05,26,8.20
2007,06,19,05,27,8.20
2007,06,19,05,28,8.20
2007,06,19,05,29,8.20
2007,06,19,05,30,8.20
2007,06,19,05,31,8.20
2007,06,19,05,32,8.20
2007,06,19,05,33,8.20
2007,06,19,05,34,8.20
2007,06,19,05,35,8.20
2007,06,19,05,36,8.20
2007,06,19,05,37,8.20
2007,06,19,05,38,8.20
2007,06,19,05,39,8.20
2007,06,19,05,40,8.20
2007,06,19,05,41,8.20
2007,06,19,05,42,8.20
2007,06,19,05,43,8.20
2007,06,19,05,44,8.20
2007,06,19,05,45,8.20
2007,06,19,05,46,8.30
2007,06,19,05,47,8.30
2007,06,19,05,48,8.40
2007,06,19,05,49,8.50
2007,06,19,05,50,8.60
2007,06,19,05,51,8.60
2007,06,19,05,52,8.70
2007,06,19,05,53,8.70
2007,06,19,05,54,8.80
2007,06,19,05,55,8.80
2007,06,19,05,56,8.90
2007,06,19,05,57,8.90
2007,06,19,05,58,8.90
2007,06,19,05,59,9.00
2007,06,19,06,00,9.00
2007,06,19,06,01,9.10
2007,06,19,06,02,9.10
2007,06,19,06,03,9.10
2007,06,19,06,04,9.20
2007,06,19,06,05,9.20
2007,06,19,06,06,9.20
2007,06,19,06,07,9.30
2007,06,19,06,08,9.30
2007,06,19,06,09,9.30
2007,06,19,06,10,9.40
2007,06,19,06,11,9.40
2007,06,19,06,12,9.50
2007,06,19,06,13,9.50
2007,06,19,06,14,9.50
2007,06,19,06,15,9.50
2007,06,19,06,16,9.60
2007,06,19,06,17,9.60
2007,06,19,06,18,9.60
2007,06,19,06,19,9.60
2007,06,19,06,20,9.60
2007,06,19,06,21,9.70
2007,06,19,06,22,9.70
2007,06,19,06,23,9.80
2007,06,19,06,24,9.80
2007,06,19,06,25,9.80
2007,06,19,06,26,9.90
2007,06,19,06,27,9.90
2007,06,19,06,28,9.90
2007,06,19,06,29,9.90
2007,06,19,06,30,9.90
2007,06,19,06,31,9.90
2007,06,19,06,32,9.90
2007,06,19,06,33,9.90
2007,06,19,06,34,9.90
2007,06,19,06,35,9.90
2007,06,19,06,36,10.00
2007,06,19,06,37,10.00
2007,06,19,06,38,10.10
2007,06,19,06,39,10.10
2007,06,19,06,40,10.10
2007,06,19,06,41,10.20
2007,06,19,06,42,10.30
2007,06,19,06,43,10.30
2007,06,19,06,44,10.30
2007,06,19,06,45,10.30
2007,06,19,06,46,10.40
2007,06,19,06,47,10.40
2007,06,19,06,48,10.40
2007,06,19,06,49,10.40
2007,06,19,06,50,10.40
2007,06,19,06,51,10.50
2007,06,19,06,52,10.50
2007,06,19,06,53,10.60
2007,06,19,06,54,10.60
2007,06,19,06,55,10.70
2007,06,19,06,56,10.70
2007,06,19,06,57,10.70
2007,06,19,06,58,10.80
2007,06,19,06,59,10.80
2007,06,19,07,00,10.80
2007,06,19,07,01,10.80
2007,06,19,07,02,10.90
2007,06,19,07,03,10.90
2007,06,19,07,04,10.90
2007,06,19,07,05,11.00
2007,06,19,07,06,11.00
2007,06,19,07,07,11.10
2007,06,19,07,08,11.10
2007,06,19,07,09,11.20
2007,06,19,07,10,11.30
2007,06,19,07,11,11.30
2007,06,19,07,12,11.40
2007,06,19,07,13,11.50
2007,06,19,07,14,11.60
2007,06,19,07,15,11.60
2007,06,19,07,16,11.70
2007,06,19,07,17,11.70
2007,06,19,07,18,11.70
2007,06,19,07,19,11.80
2007,06,19,07,20,11.90
2007,06,19,07,21,11.90
2007,06,19,07,22,11.90
2007,06,19,07,23,12.00
2007,06,19,07,24,12.00
2007,06,19,07,25,12.10
2007,06,19,07,26,12.20
2007,06,19,07,27,12.20
2007,06,19,07,28,12.20
2007,06,19,07,29,12.20
2007,06,19,07,30,12.20
2007,06,19,07,31,12.20
2007,06,19,07,32,12.20
2007,06,19,07,33,12.20
2007,06,19,07,34,12.20
2007,06,19,07,35,12.30
2007,06,19,07,36,12.40
2007,06,19,07,37,12.40
2007,06,19,07,38,12.40
2007,06,19,07,39,12.50
2007,06,19,07,40,12.50
2007,06,19,07,41,12.60
2007,06,19,07,42,12.60
2007,06,19,07,43,12.70
2007,06,19,07,44,12.70
2007,06,19,07,45,12.70
2007,06,19,07,46,12.70
2007,06,19,07,47,12.80
2007,06,19,07,48,12.80
2007,06,19,07,49,12.90
2007,06,19,07,50,12.90
2007,06,19,07,51,13.00
2007,06,19,07,52,13.10
2007,06,19,07,53,13.10
2007,06,19,07,54,13.20
2007,06,19,07,55,13.20
2007,06,19,07,56,13.30
2007,06,19,07,57,13.30
2007,06,19,07,58,13.30
2007,06,19,07,59,13.40
2007,06,19,08,00,13.50
2007,06,19,08,01,13.50
2007,06,19,08,02,13.60
2007,06,19,08,03,13.60
2007,06,19,08,04,13.70
2007,06,19,08,05,13.70
2007,06,19,08,06,13.70
2007,06,19,08,07,13.50
2007,06,19,08,08,13.40
2007,06,19,08,09,13.30
2007,06,19,08,10,13.20
2007,06,19,08,11,13.10
2007,06,19,08,12,13.00
2007,06,19,08,13,12.90
2007,06,19,08,14,12.80
2007,06,19,08,15,12.80
2007,06,19,08,16,12.70
2007,06,19,08,17,12.70
2007,06,19,08,18,12.70
2007,06,19,08,19,12.60
2007,06,19,08,20,12.50
2007,06,19,08,21,12.50
2007,06,19,08,22,12.60
2007,06,19,08,23,12.60
2007,06,19,08,24,12.70
2007,06,19,08,25,12.60
2007,06,19,08,26,12.50
2007,06,19,08,27,12.50
2007,06,19,08,28,12.50
2007,06,19,08,29,12.50
2007,06,19,08,30,12.50
2007,06,19,08,31,12.60
2007,06,19,08,32,12.60
2007,06,19,08,33,12.50
2007,06,19,08,34,12.50
2007,06,19,08,35,12.40
2007,06,19,08,36,12.40
2007,06,19,08,37,12.50
2007,06,19,08,38,12.60
2007,06,19,08,39,12.60
2007,06,19,08,40,12.60
2007,06,19,08,41,12.70
2007,06,19,08,42,12.70
2007,06,19,08,43,12.70
2007,06,19,08,44,12.70
2007,06,19,08,45,12.80
2007,06,19,08,46,12.80
2007,06,19,08,47,12.90
2007,06,19,08,48,13.10
2007,06,19,08,49,13.20
2007,06,19,08,50,13.30
2007,06,19,08,51,13.30
2007,06,19,08,52,13.20
2007,06,19,08,53,13.10
2007,06,19,08,54,13.10
2007,06,19,08,55,13.00
2007,06,19,08,56,13.00
2007,06,19,08,57,13.00
2007,06,19,08,58,13.00
2007,06,19,08,59,13.00
2007,06,19,09,00,13.00
2007,06,19,09,01,13.10
2007,06,19,09,02,13.20
2007,06,19,09,03,13.30
2007,06,19,09,04,13.40
2007,06,19,09,05,13.30
2007,06,19,09,06,13.30
2007,06,19,09,07,13.20
2007,06,19,09,08,13.20
2007,06,19,09,09,13.20
2007,06,19,09,10,13.30
2007,06,19,09,11,13.30
2007,06,19,09,12,13.30
2007,06,19,09,13,13.30
2007,06,19,09,14,13.30
2007,06,19,09,15,13.30
2007,06,19,09,16,13.30
2007,06,19,09,17,13.30
2007,06,19,09,18,13.30
2007,06,19,09,19,13.30
2007,06,19,09,20,13.30
2007,06,19,09,21,13.20
2007,06,19,09,22,13.20
2007,06,19,09,23,13.10
2007,06,19,09,24,13.10
2007,06,19,09,25,13.10
2007,06,19,09,26,13.10
2007,06,19,09,27,13.00
2007,06,19,09,28,12.90
2007,06,19,09,29,12.90
2007,06,19,09,30,12.80
2007,06,19,09,31,12.80
2007,06,19,09,32,12.70
2007,06,19,09,33,12.70
2007,06,19,09,34,12.70
2007,06,19,09,35,12.70
2007,06,19,09,36,12.70
2007,06,19,09,37,12.80
2007,06,19,09,38,12.80
2007,06,19,09,39,12.90
2007,06,19,09,40,12.90
2007,06,19,09,41,12.90
2007,06,19,09,42,12.90
2007,06,19,09,43,12.90
2007,06,19,09,44,13.00
2007,06,19,09,45,12.90
2007,06,19,09,46,12.90
2007,06,19,09,47,12.80
2007,06,19,09,48,12.80
2007,06,19,09,49,12.90
2007,06,19,09,50,12.90
2007,06,19,09,51,13.00
2007,06,19,09,52,12.90
2007,06,19,09,53,12.90
2007,06,19,09,54,13.00
2007,06,19,09,55,13.10
2007,06,19,09,56,13.10
2007,06,19,09,57,13.20
2007,06,19,09,58,13.10
2007,06,19,09,59,13.10
2007,06,19,10,00,13.00
2007,06,19,10,01,13.00
2007,06,19,10,02,12.90
2007,06,19,10,03,12.90
2007,06,19,10,04,13.00
2007,06,19,10,05,13.10
2007,06,19,10,06,13.20
2007,06,19,10,07,13.40
2007,06,19,10,08,13.60
2007,06,19,10,09,13.70
2007,06,19,10,10,13.50
2007,06,19,10,11,13.40
2007,06,19,10,12,13.40
2007,06,19,10,13,13.30
2007,06,19,10,14,13.20
2007,06,19,10,15,13.00
2007,06,19,10,16,12.90
2007,06,19,10,17,12.80
2007,06,19,10,18,12.80
2007,06,19,10,19,12.70
2007,06,19,10,20,12.70
2007,06,19,10,21,12.60
2007,06,19,10,22,12.60
2007,06,19,10,23,12.60
2007,06,19,10,24,12.60
2007,06,19,10,25,12.60
2007,06,19,10,26,12.60
2007,06,19,10,27,12.70
2007,06,19,10,28,12.70
2007,06,19,10,29,12.70
2007,06,19,10,30,12.80
2007,06,19,10,31,12.90
2007,06,19,10,32,13.00
2007,06,19,10,33,13.10
2007,06,19,10,34,13.30
2007,06,19,10,35,13.50
2007,06,19,10,36,13.50
2007,06,19,10,37,13.30
2007,06,19,10,38,13.20
2007,06,19,10,39,13.30
2007,06,19,10,40,13.30
2007,06,19,10,41,13.30
2007,06,19,10,42,13.30
2007,06,19,10,43,13.20
2007,06,19,10,44,13.00
2007,06,19,10,45,12.90
2007,06,19,10,46,12.90
2007,06,19,10,47,13.00
2007,06,19,10,48,13.00
2007,06,19,10,49,13.00
2007,06,19,10,50,13.10
2007,06,19,10,51,13.30
2007,06,19,10,52,13.40
2007,06,19,10,53,13.50
2007,06,19,10,54,13.40
2007,06,19,10,55,13.40
2007,06,19,10,56,13.40
2007,06,19,10,57,13.50
2007,06,19,10,58,13.60
2007,06,19,10,59,13.60
2007,06,19,11,00,13.60
2007,06,19,11,01,13.60
2007,06,19,11,02,13.80
2007,06,19,11,03,14.00
2007,06,19,11,04,14.20
2007,06,19,11,05,14.40
2007,06,19,11,06,14.50
2007,06,19,11,07,14.50
2007,06,19,11,08,14.40
2007,06,19,11,09,14.30
2007,06,19,11,10,14.20
2007,06,19,11,11,14.10
2007,06,19,11,12,14.10
2007,06,19,11,13,14.10
2007,06,19,11,14,14.10
2007,06,19,11,15,14.10
2007,06,19,11,16,14.10
2007,06,19,11,17,14.20
2007,06,19,11,18,14.20
2007,06,19,11,19,14.30
2007,06,19,11,20,14.40
2007,06,19,11,21,14.50
2007,06,19,11,22,14.50
2007,06,19,11,23,14.50
2007,06,19,11,24,14.70
2007,06,19,11,25,14.70
2007,06,19,11,26,14.70
2007,06,19,11,27,14.60
2007,06,19,11,28,14.50
2007,06,19,11,29,14.50
2007,06,19,11,30,14.60
2007,06,19,11,31,14.60
2007,06,19,11,32,14.50
2007,06,19,11,33,14.50
2007,06,19,11,34,14.40
2007,06,19,11,35,14.50
2007,06,19,11,36,14.70
2007,06,19,11,37,14.80
2007,06,19,11,38,14.70
2007,06,19,11,39,14.70
2007,06,19,11,40,14.60
2007,06,19,11,41,14.60
2007,06,19,11,42,14.70
2007,06,19,11,43,14.90
2007,06,19,11,44,14.90
2007,06,19,11,45,14.90
2007,06,19,11,46,15.00
2007,06,19,11,47,15.00
2007,06,19,11,48,15.00
2007,06,19,11,49,15.00
2007,06,19,11,50,15.10
2007,06,19,11,51,15.00
2007,06,19,11,52,14.90
2007,06,19,11,53,14.80
2007,06,19,11,54,14.60
2007,06,19,11,55,14.40
2007,06,19,11,56,14.30
2007,06,19,11,57,14.10
2007,06,19,11,58,14.00
2007,06,19,11,59,13.90
2007,06,19,12,00,13.90
2007,06,19,12,01,14.00
2007,06,19,12,02,14.00
2007,06,19,12,03,14.10
2007,06,19,12,04,14.10
2007,06,19,12,05,14.20
2007,06,19,12,06,14.20
2007,06,19,12,07,14.30
2007,06,19,12,08,14.40
2007,06,19,12,09,14.40
2007,06,19,12,10,14.50
2007,06,19,12,11,14.60
2007,06,19,12,12,14.70
2007,06,19,12,13,14.80
2007,06,19,12,14,14.80
2007,06,19,12,15,14.70
2007,06,19,12,16,14.70
2007,06,19,12,17,14.60
2007,06,19,12,18,14.60
2007,06,19,12,19,14.70
2007,06,19,12,20,14.70
2007,06,19,12,21,14.70
2007,06,19,12,22,14.70
2007,06,19,12,23,14.70
2007,06,19,12,24,14.70
2007,06,19,12,25,14.80
2007,06,19,12,26,15.00
2007,06,19,12,27,15.00
2007,06,19,12,28,15.00
2007,06,19,12,29,15.00
2007,06,19,12,30,15.10
2007,06,19,12,31,15.30
2007,06,19,12,32,15.40
2007,06,19,12,33,15.50
2007,06,19,12,34,15.60
2007,06,19,12,35,15.60
2007,06,19,12,36,15.40
2007,06,19,12,37,15.40
2007,06,19,12,38,15.40
2007,06,19,12,39,15.50
2007,06,19,12,40,15.70
2007,06,19,12,41,15.80
2007,06,19,12,42,15.80
2007,06,19,12,43,15.80
2007,06,19,12,44,15.80
2007,06,19,12,45,15.70
2007,06,19,12,46,15.60
2007,06,19,12,47,15.60
2007,06,19,12,48,15.60
2007,06,19,12,49,15.60
2007,06,19,12,50,15.80
2007,06,19,12,51,15.70
2007,06,19,12,52,15.60
2007,06,19,12,53,15.60
2007,06,19,12,54,15.50
2007,06,19,12,55,15.40
2007,06,19,12,56,15.30
2007,06,19,12,57,15.20
2007,06,19,12,58,15.00
2007,06,19,12,59,15.00
2007,06,19,13,00,14.90
2007,06,19,13,01,14.90
2007,06,19,13,02,14.80
2007,06,19,13,03,15.00
2007,06,19,13,04,15.00
2007,06,19,13,05,14.90
2007,06,19,13,06,14.90
2007,06,19,13,07,15.00
2007,06,19,13,08,15.00
2007,06,19,13,09,15.00
2007,06,19,13,10,15.10
2007,06,19,13,11,15.40
2007,06,19,13,12,15.50
2007,06,19,13,13,15.70
2007,06,19,13,14,15.80
2007,06,19,13,15,15.80
2007,06,19,13,16,15.80
2007,06,19,13,17,15.80
2007,06,19,13,18,15.50
2007,06,19,13,19,15.40
2007,06,19,13,20,15.30
2007,06,19,13,21,15.40
2007,06,19,13,22,15.50
2007,06,19,13,23,15.70
2007,06,19,13,24,15.70
2007,06,19,13,25,15.60
2007,06,19,13,26,15.60
2007,06,19,13,27,15.70
2007,06,19,13,28,15.80
2007,06,19,13,29,15.80
2007,06,19,13,30,15.70
2007,06,19,13,31,15.70
2007,06,19,13,32,15.60
2007,06,19,13,33,15.50
2007,06,19,13,34,15.40
2007,06,19,13,35,15.40
2007,06,19,13,36,15.50
2007,06,19,13,37,15.50
2007,06,19,13,38,15.60
2007,06,19,13,39,15.50
2007,06,19,13,40,15.50
2007,06,19,13,41,15.40
2007,06,19,13,42,15.40
2007,06,19,13,43,15.40
2007,06,19,13,44,15.30
2007,06,19,13,45,15.40
2007,06,19,13,46,15.40
2007,06,19,13,47,15.50
2007,06,19,13,48,15.60
2007,06,19,13,49,15.70
2007,06,19,13,50,15.70
2007,06,19,13,51,15.80
2007,06,19,13,52,15.80
2007,06,19,13,53,15.90
2007,06,19,13,54,15.90
2007,06,19,13,55,16.00
2007,06,19,13,56,16.20
2007,06,19,13,57,16.40
2007,06,19,13,58,16.50
2007,06,19,13,59,16.60
2007,06,19,14,00,16.50
2007,06,19,14,01,16.30
2007,06,19,14,02,16.10
2007,06,19,14,03,16.10
2007,06,19,14,04,16.20
2007,06,19,14,05,16.30
2007,06,19,14,06,16.40
2007,06,19,14,07,16.50
2007,06,19,14,08,16.50
2007,06,19,14,09,16.50
2007,06,19,14,10,16.50
2007,06,19,14,11,16.40
2007,06,19,14,12,16.20
2007,06,19,14,13,16.00
2007,06,19,14,14,15.90
2007,06,19,14,15,15.80
2007,06,19,14,16,15.80
2007,06,19,14,17,15.80
2007,06,19,14,18,15.80
2007,06,19,14,19,15.80
2007,06,19,14,20,15.60
2007,06,19,14,21,15.50
2007,06,19,14,22,15.40
2007,06,19,14,23,15.30
2007,06,19,14,24,15.30
2007,06,19,14,25,15.20
2007,06,19,14,26,15.40
2007,06,19,14,27,15.50
2007,06,19,14,28,15.50
2007,06,19,14,29,15.40
2007,06,19,14,30,15.40
2007,06,19,14,31,15.30
2007,06,19,14,32,15.20
2007,06,19,14,33,15.10
2007,06,19,14,34,15.00
2007,06,19,14,35,15.10
2007,06,19,14,36,15.20
2007,06,19,14,37,15.30
2007,06,19,14,38,15.40
2007,06,19,14,39,15.50
2007,06,19,14,40,15.70
2007,06,19,14,41,15.80
2007,06,19,14,42,15.80
2007,06,19,14,43,15.80
2007,06,19,14,44,15.60
2007,06,19,14,45,15.50
2007,06,19,14,46,15.40
2007,06,19,14,47,15.40
2007,06,19,14,48,15.40
2007,06,19,14,49,15.30
2007,06,19,14,50,15.20
2007,06,19,14,51,15.10
2007,06,19,14,52,15.10
2007,06,19,14,53,15.20
2007,06,19,14,54,15.30
2007,06,19,14,55,15.50
2007,06,19,14,56,15.70
2007,06,19,14,57,15.80
2007,06,19,14,58,15.80
2007,06,19,14,59,15.80
2007,06,19,15,00,15.70
2007,06,19,15,01,15.40
2007,06,19,15,02,15.30
2007,06,19,15,03,15.20
2007,06,19,15,04,15.00
2007,06,19,15,05,15.00
2007,06,19,15,06,15.00
2007,06,19,15,07,15.00
2007,06,19,15,08,15.10
2007,06,19,15,09,15.30
2007,06,19,15,10,15.10
2007,06,19,15,11,15.00
2007,06,19,15,12,14.90
2007,06,19,15,13,14.70
2007,06,19,15,14,14.60
2007,06,19,15,15,14.60
2007,06,19,15,16,14.60
2007,06,19,15,17,14.70
2007,06,19,15,18,15.00
2007,06,19,15,19,15.00
2007,06,19,15,20,15.10
2007,06,19,15,21,15.20
2007,06,19,15,22,15.20
2007,06,19,15,23,15.20
2007,06,19,15,24,15.20
2007,06,19,15,25,15.30
2007,06,19,15,26,15.20
2007,06,19,15,27,15.10
2007,06,19,15,28,15.00
2007,06,19,15,29,15.10
2007,06,19,15,30,15.20
2007,06,19,15,31,15.40
2007,06,19,15,32,15.60
2007,06,19,15,33,15.90
2007,06,19,15,34,15.80
2007,06,19,15,35,15.80
2007,06,19,15,36,15.80
2007,06,19,15,37,16.00
2007,06,19,15,38,16.10
2007,06,19,15,39,16.20
2007,06,19,15,40,16.30
2007,06,19,15,41,16.40
2007,06,19,15,42,16.50
2007,06,19,15,43,16.50
2007,06,19,15,44,16.50
2007,06,19,15,45,16.30
2007,06,19,15,46,16.30
2007,06,19,15,47,16.20
2007,06,19,15,48,16.20
2007,06,19,15,49,16.30
2007,06,19,15,50,16.30
2007,06,19,15,51,16.30
2007,06,19,15,52,16.30
2007,06,19,15,53,16.40
2007,06,19,15,54,16.40
2007,06,19,15,55,16.50
2007,06,19,15,56,16.60
2007,06,19,15,57,16.80
2007,06,19,15,58,16.80
2007,06,19,15,59,16.90
2007,06,19,16,00,16.80
2007,06,19,16,01,16.90
2007,06,19,16,02,17.00
2007,06,19,16,03,17.00
2007,06,19,16,04,17.00
2007,06,19,16,05,17.00
2007,06,19,16,06,17.10
2007,06,19,16,07,17.00
2007,06,19,16,08,17.10
2007,06,19,16,09,17.10
2007,06,19,16,10,17.30
2007,06,19,16,11,17.50
2007,06,19,16,12,17.50
2007,06,19,16,13,17.50
2007,06,19,16,14,17.60
2007,06,19,16,15,17.70
2007,06,19,16,16,17.80
2007,06,19,16,17,17.80
2007,06,19,16,18,17.70
2007,06,19,16,19,17.70
2007,06,19,16,20,17.60
2007,06,19,16,21,17.70
2007,06,19,16,22,17.70
2007,06,19,16,23,17.70
2007,06,19,16,24,17.60
2007,06,19,16,25,17.60
2007,06,19,16,26,17.70
2007,06,19,16,27,17.70
2007,06,19,16,28,17.80
2007,06,19,16,29,17.80
2007,06,19,16,30,17.80
2007,06,19,16,31,17.90
2007,06,19,16,32,18.00
2007,06,19,16,33,18.10
2007,06,19,16,34,18.10
2007,06,19,16,35,18.20
2007,06,19,16,36,18.20
2007,06,19,16,37,18.20
2007,06,19,16,38,18.10
2007,06,19,16,39,18.00
2007,06,19,16,40,18.00
2007,06,19,16,41,17.90
2007,06,19,16,42,17.90
2007,06,19,16,43,17.90
2007,06,19,16,44,18.00
2007,06,19,16,45,18.20
2007,06,19,16,46,18.20
2007,06,19,16,47,18.30
2007,06,19,16,48,18.40
2007,06,19,16,49,18.40
2007,06,19,16,50,18.40
2007,06,19,16,51,18.40
2007,06,19,16,52,18.40
2007,06,19,16,53,18.30
2007,06,19,16,54,18.30
2007,06,19,16,55,18.30
2007,06,19,16,56,18.30
2007,06,19,16,57,18.40
2007,06,19,16,58,18.40
2007,06,19,16,59,18.50
2007,06,19,17,00,18.60
2007,06,19,17,01,18.70
2007,06,19,17,02,18.70
2007,06,19,17,03,18.70
2007,06,19,17,04,18.60
2007,06,19,17,05,18.50
2007,06,19,17,06,18.30
2007,06,19,17,07,18.20
2007,06,19,17,08,18.10
2007,06,19,17,09,18.10
2007,06,19,17,10,18.10
2007,06,19,17,11,18.10
2007,06,19,17,12,18.10
2007,06,19,17,13,18.10
2007,06,19,17,14,18.10
2007,06,19,17,15,18.20
2007,06,19,17,16,18.20
2007,06,19,17,17,18.20
2007,06,19,17,18,18.30
2007,06,19,17,19,18.40
2007,06,19,17,20,18.50
2007,06,19,17,21,18.70
2007,06,19,17,22,18.80
2007,06,19,17,23,19.00
2007,06,19,17,24,19.10
2007,06,19,17,25,19.20
2007,06,19,17,26,19.20
2007,06,19,17,27,19.30
2007,06,19,17,28,19.30
2007,06,19,17,29,19.40
2007,06,19,17,30,19.40
2007,06,19,17,31,19.30
2007,06,19,17,32,19.30
2007,06,19,17,33,19.30
2007,06,19,17,34,19.20
2007,06,19,17,35,19.20
2007,06,19,17,36,19.10